| time (UTC) | temp F | wind direction | speed MPH | gust MPH | rain 1hr in | rain 24hr in | rain mn in | humidity % | barometer mb |
| 20260507075516 | 54 | 31 | 2.0 | 7.0 | 0.00 | 0.00 | 0.00 | 71 | 1012.2 |
| 20260507075016 | 54 | 57 | 2.0 | 7.0 | 0.00 | 0.00 | 0.00 | 72 | 1012.1 |
| 20260507074532 | 54 | 76 | 3.0 | 9.0 | 0.00 | 0.00 | 0.00 | 72 | 1012.2 |
| 20260507074015 | 54 | 0 | 1.0 | 9.0 | 0.00 | 0.00 | 0.00 | 72 | 1012.1 |
| 20260507073516 | 54 | 47 | 4.0 | 9.0 | 0.00 | 0.00 | 0.00 | 73 | 1012.1 |
| 20260507073032 | 54 | 93 | 3.0 | 8.0 | 0.00 | 0.00 | 0.00 | 73 | 1012.1 |
| 20260507072516 | 54 | 69 | 2.0 | 8.0 | 0.00 | 0.00 | 0.00 | 73 | 1012.2 |
| 20260507072015 | 54 | 52 | 3.0 | 9.0 | 0.00 | 0.00 | 0.00 | 72 | 1012.2 |
| 20260507071540 | 55 | 86 | 4.0 | 10.0 | 0.00 | 0.00 | 0.00 | 72 | 1012.2 |
| 20260507071022 | 54 | 39 | 4.0 | 10.0 | 0.00 | 0.00 | 0.00 | 72 | 1012.0 |
| 20260507070516 | 55 | 55 | 5.0 | 11.0 | 0.00 | 0.00 | 0.00 | 72 | 1011.9 |
| 20260507070034 | 54 | 65 | 4.0 | 11.0 | 0.00 | 0.00 | 0.00 | 74 | 1011.9 |
| 20260507065517 | 53 | 69 | 3.0 | 11.0 | 0.00 | 0.00 | 0.00 | 74 | 1011.9 |
| 20260507065015 | 53 | 52 | 4.0 | 11.0 | 0.00 | 0.00 | 0.00 | 74 | 1011.9 |
| 20260507064532 | 53 | 76 | 5.0 | 10.0 | 0.00 | 0.00 | 0.00 | 74 | 1011.7 |
| 20260507064018 | 53 | 45 | 3.0 | 9.0 | 0.00 | 0.00 | 0.00 | 74 | 1011.7 |
| 20260507063516 | 53 | 69 | 5.0 | 10.0 | 0.00 | 0.00 | 0.00 | 75 | 1011.7 |
| 20260507063032 | 53 | 51 | 5.0 | 11.0 | 0.00 | 0.00 | 0.00 | 74 | 1011.6 |
| 20260507062516 | 52 | 71 | 5.0 | 11.0 | 0.00 | 0.00 | 0.00 | 75 | 1011.6 |
| 20260507062017 | 52 | 90 | 5.0 | 12.0 | 0.00 | 0.00 | 0.00 | 75 | 1011.6 |
| 20260507061530 | 52 | 62 | 4.0 | 12.0 | 0.00 | 0.00 | 0.00 | 76 | 1011.5 |
| 20260507061017 | 51 | 88 | 4.0 | 12.0 | 0.00 | 0.00 | 0.00 | 76 | 1011.6 |
| 20260507060516 | 51 | 66 | 4.0 | 11.0 | 0.00 | 0.00 | 0.00 | 78 | 1011.4 |
| 20260507060030 | 50 | 71 | 3.0 | 11.0 | 0.00 | 0.00 | 0.00 | 78 | 1011.4 |
| 20260507055517 | 50 | 69 | 4.0 | 11.0 | 0.00 | 0.00 | 0.00 | 78 | 1011.4 |
| 20260507055015 | 50 | 94 | 3.0 | 10.0 | 0.00 | 0.00 | 0.00 | 79 | 1011.3 |
| 20260507054530 | 50 | 98 | 3.0 | 10.0 | 0.00 | 0.00 | 0.00 | 79 | 1011.3 |
| 20260507054016 | 50 | 65 | 3.0 | 10.0 | 0.00 | 0.00 | 0.00 | 79 | 1011.2 |
| 20260507053516 | 49 | 80 | 4.0 | 10.0 | 0.00 | 0.00 | 0.00 | 79 | 1011.1 |
| 20260507053032 | 49 | 85 | 4.0 | 10.0 | 0.00 | 0.00 | 0.00 | 79 | 1011.2 |
| 20260507052513 | 49 | 66 | 4.0 | 10.0 | 0.00 | 0.00 | 0.00 | 79 | 1011.1 |
| 20260507052016 | 49 | 76 | 4.0 | 10.0 | 0.00 | 0.00 | 0.00 | 79 | 1011.1 |
| 20260507051532 | 49 | 53 | 4.0 | 10.0 | 0.00 | 0.00 | 0.00 | 78 | 1011.2 |
| 20260507051013 | 50 | 64 | 2.0 | 10.0 | 0.00 | 0.00 | 0.00 | 78 | 1011.2 |
| 20260507050515 | 49 | 69 | 3.0 | 11.0 | 0.00 | 0.00 | 0.00 | 79 | 1011.2 |
| 20260507050030 | 49 | 36 | 4.0 | 11.0 | 0.00 | 0.00 | 0.00 | 79 | 1011.2 |
| 20260507045516 | 49 | 62 | 3.0 | 8.0 | 0.00 | 0.00 | 0.00 | 79 | 1011.3 |
| 20260507045018 | 49 | 73 | 2.0 | 10.0 | 0.00 | 0.00 | 0.00 | 79 | 1011.3 |
| 20260507044530 | 49 | 52 | 4.0 | 10.0 | 0.00 | 0.00 | 0.00 | 79 | 1011.3 |
| 20260507044016 | 49 | 58 | 3.0 | 9.0 | 0.00 | 0.00 | 0.00 | 79 | 1011.5 |
| 20260507043517 | 49 | 66 | 3.0 | 8.0 | 0.00 | 0.00 | 0.00 | 78 | 1011.3 |
| 20260507043036 | 49 | 58 | 3.0 | 8.0 | 0.00 | 0.00 | 0.00 | 78 | 1011.4 |
| 20260507042515 | 49 | 54 | 3.0 | 8.0 | 0.00 | 0.00 | 0.00 | 78 | 1011.3 |
| 20260507042016 | 49 | 68 | 3.0 | 8.0 | 0.00 | 0.00 | 0.00 | 78 | 1011.3 |
| 20260507041533 | 49 | 57 | 3.0 | 8.0 | 0.00 | 0.00 | 0.00 | 78 | 1011.5 |
| 20260507041016 | 49 | 71 | 3.0 | 8.0 | 0.00 | 0.00 | 0.00 | 78 | 1011.4 |
| 20260507040516 | 49 | 56 | 3.0 | 6.0 | 0.00 | 0.00 | 0.00 | 78 | 1011.4 |
| 20260507040032 | 50 | 61 | 1.0 | 8.0 | 0.00 | 0.00 | 0.00 | 77 | 1011.4 |
| 20260507035515 | 50 | 69 | 2.0 | 8.0 | 0.00 | 0.00 | 0.00 | 77 | 1011.5 |
| 20260507035013 | 50 | 56 | 1.0 | 6.0 | 0.00 | 0.00 | 0.00 | 77 | 1011.4 |
| 20260507034530 | 50 | 59 | 2.0 | 5.0 | 0.00 | 0.00 | 0.00 | 77 | 1011.3 |
| 20260507034013 | 50 | 41 | 3.0 | 6.0 | 0.00 | 0.00 | 0.00 | 77 | 1011.3 |
| 20260507033519 | 50 | 52 | 1.0 | 10.0 | 0.00 | 0.00 | 0.00 | 77 | 1011.3 |
| 20260507033035 | 50 | 64 | 2.0 | 10.0 | 0.00 | 0.00 | 0.00 | 76 | 1011.3 |
| 20260507032515 | 50 | 43 | 4.0 | 10.0 | 0.00 | 0.00 | 0.00 | 77 | 1011.2 |
| 20260507032017 | 50 | 62 | 2.0 | 6.0 | 0.00 | 0.00 | 0.00 | 77 | 1011.3 |
| 20260507031531 | 50 | 55 | 2.0 | 9.0 | 0.00 | 0.00 | 0.00 | 77 | 1011.3 |
| 20260507031015 | 50 | 61 | 3.0 | 9.0 | 0.00 | 0.00 | 0.00 | 77 | 1011.1 |
| 20260507030516 | 50 | 55 | 2.0 | 7.0 | 0.00 | 0.00 | 0.00 | 77 | 1011.4 |
| 20260507030033 | 50 | 49 | 2.0 | 7.0 | 0.00 | 0.00 | 0.00 | 77 | 1011.4 |
| 20260507025515 | 49 | 52 | 2.0 | 6.0 | 0.00 | 0.00 | 0.00 | 77 | 1011.3 |
| 20260507025016 | 49 | 59 | 2.0 | 10.0 | 0.00 | 0.00 | 0.00 | 77 | 1011.3 |
| 20260507024535 | 49 | 59 | 4.0 | 10.0 | 0.00 | 0.00 | 0.00 | 77 | 1011.3 |
| 20260507024015 | 49 | 63 | 2.0 | 6.0 | 0.00 | 0.00 | 0.00 | 77 | 1011.3 |
| 20260507023519 | 49 | 61 | 2.0 | 7.0 | 0.00 | 0.00 | 0.00 | 77 | 1011.4 |
| 20260507023031 | 49 | 32 | 2.0 | 7.0 | 0.00 | 0.00 | 0.00 | 77 | 1011.4 |
| 20260507022516 | 49 | 59 | 2.0 | 9.0 | 0.00 | 0.00 | 0.00 | 77 | 1011.3 |
| 20260507022016 | 49 | 65 | 2.0 | 9.0 | 0.00 | 0.00 | 0.00 | 77 | 1011.2 |
| 20260507021532 | 49 | 49 | 2.0 | 5.0 | 0.00 | 0.00 | 0.00 | 76 | 1011.2 |
| 20260507021017 | 49 | 58 | 1.0 | 7.0 | 0.00 | 0.00 | 0.00 | 76 | 1011.3 |
| 20260507020517 | 50 | 69 | 0.0 | 7.0 | 0.00 | 0.00 | 0.00 | 75 | 1011.3 |
| 20260507020034 | 50 | 63 | 3.0 | 7.0 | 0.00 | 0.00 | 0.00 | 74 | 1011.4 |
| 20260507015519 | 50 | 91 | 2.0 | 9.0 | 0.00 | 0.00 | 0.00 | 74 | 1011.3 |
| 20260507015017 | 50 | 24 | 2.0 | 9.0 | 0.00 | 0.00 | 0.00 | 73 | 1011.3 |
| 20260507014534 | 50 | 60 | 1.0 | 8.0 | 0.00 | 0.00 | 0.00 | 73 | 1011.3 |
| 20260507014017 | 51 | 67 | 3.0 | 8.0 | 0.00 | 0.00 | 0.00 | 72 | 1011.3 |
| 20260507013517 | 51 | 90 | 2.0 | 9.0 | 0.00 | 0.00 | 0.00 | 72 | 1011.2 |
| 20260507013036 | 51 | 92 | 2.0 | 12.0 | 0.00 | 0.00 | 0.00 | 72 | 1011.2 |
| 20260507012521 | 51 | 51 | 4.0 | 12.0 | 0.00 | 0.00 | 0.00 | 71 | 1011.3 |
| 20260507012013 | 51 | 87 | 6.0 | 12.0 | 0.00 | 0.00 | 0.00 | 71 | 1011.3 |
| 20260507011538 | 51 | 86 | 4.0 | 12.0 | 0.00 | 0.00 | 0.00 | 71 | 1011.3 |
| 20260507011015 | 52 | 90 | 4.0 | 14.0 | 0.00 | 0.00 | 0.00 | 70 | 1011.2 |
| 20260507010513 | 52 | 96 | 7.0 | 15.0 | 0.00 | 0.00 | 0.00 | 70 | 1011.3 |
| 20260507010030 | 52 | 66 | 7.0 | 15.0 | 0.00 | 0.00 | 0.00 | 69 | 1011.3 |
| 20260507005517 | 52 | 60 | 6.0 | 14.0 | 0.00 | 0.00 | 0.00 | 69 | 1011.4 |
| 20260507005017 | 52 | 85 | 6.0 | 15.0 | 0.00 | 0.00 | 0.00 | 69 | 1011.4 |
| 20260507004532 | 52 | 84 | 8.0 | 16.0 | 0.00 | 0.00 | 0.00 | 68 | 1011.4 |
| 20260507004017 | 52 | 133 | 8.0 | 17.0 | 0.00 | 0.00 | 0.00 | 68 | 1011.4 |
| 20260507003514 | 53 | 118 | 6.0 | 17.0 | 0.00 | 0.00 | 0.00 | 67 | 1011.5 |
| 20260507003031 | 53 | 85 | 9.0 | 16.0 | 0.00 | 0.00 | 0.00 | 67 | 1011.4 |
| 20260507002513 | 53 | 92 | 9.0 | 17.0 | 0.00 | 0.00 | 0.00 | 67 | 1011.3 |
| 20260507002016 | 53 | 92 | 8.0 | 17.0 | 0.00 | 0.00 | 0.00 | 67 | 1011.3 |
| 20260507001539 | 53 | 84 | 8.0 | 16.0 | 0.00 | 0.00 | 0.00 | 66 | 1011.4 |
| 20260507001016 | 53 | 84 | 8.0 | 18.0 | 0.00 | 0.00 | 0.00 | 66 | 1011.4 |
| 20260507000519 | 53 | 58 | 7.0 | 18.0 | 0.00 | 0.00 | 0.00 | 66 | 1011.2 |
| 20260507000030 | 53 | 66 | 7.0 | 15.0 | 0.00 | 0.00 | 0.00 | 65 | 1011.3 |
| 20260506235516 | 53 | 84 | 8.0 | 21.0 | 0.00 | 0.00 | 0.00 | 65 | 1011.4 |
| 20260506235012 | 53 | 107 | 8.0 | 21.0 | 0.00 | 0.00 | 0.00 | 65 | 1011.3 |
| 20260506234541 | 53 | 128 | 8.0 | 18.0 | 0.00 | 0.00 | 0.00 | 65 | 1011.4 |
| 20260506234013 | 53 | 75 | 9.0 | 17.0 | 0.00 | 0.00 | 0.00 | 65 | 1011.4 |
| 20260506233514 | 53 | 69 | 6.0 | 15.0 | 0.00 | 0.00 | 0.00 | 65 | 1011.3 |
| 20260506233033 | 53 | 67 | 8.0 | 16.0 | 0.00 | 0.00 | 0.00 | 65 | 1011.4 |
| 20260506232515 | 53 | 60 | 9.0 | 16.0 | 0.00 | 0.00 | 0.00 | 65 | 1011.3 |
| 20260506232015 | 53 | 74 | 7.0 | 16.0 | 0.00 | 0.00 | 0.00 | 64 | 1011.3 |
| 20260506231535 | 53 | 93 | 8.0 | 15.0 | 0.00 | 0.00 | 0.00 | 64 | 1011.3 |
| 20260506231015 | 53 | 60 | 7.0 | 16.0 | 0.00 | 0.00 | 0.00 | 63 | 1011.3 |
| 20260506230511 | 53 | 59 | 8.0 | 16.0 | 0.00 | 0.00 | 0.00 | 61 | 1011.3 |
| 20260506230029 | 54 | 61 | 8.0 | 16.0 | 0.00 | 0.00 | 0.00 | 61 | 1011.3 |
| 20260506225516 | 54 | 66 | 6.0 | 16.0 | 0.00 | 0.00 | 0.00 | 59 | 1011.3 |
| 20260506225013 | 54 | 76 | 6.0 | 14.0 | 0.00 | 0.00 | 0.00 | 59 | 1011.3 |
| 20260506224532 | 54 | 74 | 7.0 | 14.0 | 0.00 | 0.00 | 0.00 | 58 | 1011.2 |
| 20260506224015 | 54 | 78 | 7.0 | 14.0 | 0.00 | 0.00 | 0.00 | 58 | 1011.2 |
| 20260506223516 | 54 | 90 | 5.0 | 12.0 | 0.00 | 0.00 | 0.00 | 58 | 1011.3 |
| 20260506223031 | 54 | 57 | 5.0 | 12.0 | 0.00 | 0.00 | 0.00 | 57 | 1011.3 |
| 20260506222514 | 54 | 84 | 5.0 | 12.0 | 0.00 | 0.00 | 0.00 | 57 | 1011.2 |
| 20260506222015 | 54 | 101 | 4.0 | 11.0 | 0.00 | 0.00 | 0.00 | 56 | 1011.2 |
| 20260506221532 | 54 | 82 | 5.0 | 10.0 | 0.00 | 0.00 | 0.00 | 54 | 1011.2 |
| 20260506221016 | 54 | 88 | 5.0 | 11.0 | 0.00 | 0.00 | 0.00 | 53 | 1011.1 |
| 20260506220512 | 54 | 94 | 5.0 | 11.0 | 0.00 | 0.00 | 0.00 | 51 | 1011.2 |
| 20260506220032 | 54 | 83 | 3.0 | 8.0 | 0.00 | 0.00 | 0.00 | 49 | 1011.2 |
| 20260506215513 | 54 | 86 | 4.0 | 8.0 | 0.00 | 0.00 | 0.00 | 50 | 1011.2 |
| 20260506215012 | 54 | 113 | 1.0 | 3.0 | 0.00 | 0.00 | 0.00 | 50 | 1011.2 |
| 20260506214531 | 54 | 113 | 0.0 | 2.0 | 0.00 | 0.00 | 0.00 | 49 | 1011.2 |
| 20260506214013 | 54 | 0 | 0.0 | 6.0 | 0.00 | 0.00 | 0.00 | 49 | 1011.3 |
| 20260506213512 | 54 | 0 | 0.0 | 6.0 | 0.00 | 0.00 | 0.00 | 51 | 1011.2 |
| 20260506213030 | 54 | 113 | 1.0 | 5.0 | 0.00 | 0.00 | 0.00 | 50 | 1011.2 |
| 20260506212518 | 54 | 151 | 0.0 | 2.0 | 0.00 | 0.00 | 0.00 | 50 | 1011.3 |
| 20260506212014 | 54 | 0 | 0.0 | 2.0 | 0.00 | 0.00 | 0.00 | 50 | 1011.2 |
| 20260506211536 | 54 | 0 | 0.0 | 2.0 | 0.00 | 0.00 | 0.00 | 49 | 1011.3 |
| 20260506211014 | 54 | 0 | 0.0 | 2.0 | 0.00 | 0.00 | 0.00 | 50 | 1011.2 |
| 20260506210514 | 54 | 161 | 0.0 | 1.0 | 0.00 | 0.00 | 0.00 | 51 | 1011.2 |
| 20260506210031 | 54 | 0 | 0.0 | 1.0 | 0.00 | 0.00 | 0.00 | 52 | 1011.3 |
| 20260506205515 | 54 | 0 | 0.0 | 0.0 | 0.00 | 0.00 | 0.00 | 54 | 1011.2 |
| 20260506205013 | 54 | 0 | 0.0 | 0.0 | 0.00 | 0.00 | 0.00 | 54 | 1011.2 |
| 20260506204534 | 54 | 0 | 0.0 | 0.0 | 0.00 | 0.00 | 0.00 | 53 | 1011.2 |
| 20260506204018 | 54 | 0 | 0.0 | 0.0 | 0.00 | 0.00 | 0.00 | 54 | 1011.2 |
| 20260506203516 | 54 | 0 | 0.0 | 0.0 | 0.00 | 0.00 | 0.00 | 54 | 1011.2 |
| 20260506203048 | 54 | 0 | 0.0 | 0.0 | 0.00 | 0.00 | 0.00 | 53 | 1011.1 |
| 20260506202515 | 54 | 0 | 0.0 | 0.0 | 0.00 | 0.00 | 0.00 | 54 | 1011.2 |
| 20260506202015 | 54 | 0 | 0.0 | 0.0 | 0.00 | 0.00 | 0.00 | 56 | 1011.1 |
| 20260506201528 | 54 | 0 | 0.0 | 0.0 | 0.00 | 0.00 | 0.00 | 56 | 1011.1 |
| 20260506201012 | 54 | 0 | 0.0 | 0.0 | 0.00 | 0.00 | 0.00 | 55 | 1011.1 |
| 20260506200516 | 54 | 0 | 0.0 | 0.0 | 0.00 | 0.00 | 0.00 | 55 | 1011.0 |
| 20260506200043 | 55 | 0 | 0.0 | 0.0 | 0.00 | 0.00 | 0.00 | 54 | 1011.0 |
| 20260506195516 | 55 | 0 | 0.0 | 0.0 | 0.00 | 0.00 | 0.00 | 55 | 1010.9 |
| 20260506195016 | 55 | 0 | 0.0 | 0.0 | 0.00 | 0.00 | 0.00 | 54 | 1010.9 |
| 20260506194532 | 55 | 0 | 0.0 | 0.0 | 0.00 | 0.00 | 0.00 | 53 | 1010.8 |
| 20260506194015 | 56 | 0 | 0.0 | 0.0 | 0.00 | 0.00 | 0.00 | 52 | 1010.8 |
| 20260506193513 | 57 | 0 | 0.0 | 0.0 | 0.00 | 0.00 | 0.00 | 51 | 1010.8 |
| 20260506193029 | 57 | 0 | 0.0 | 0.0 | 0.00 | 0.00 | 0.00 | 49 | 1010.7 |
| 20260506192515 | 57 | 0 | 0.0 | 0.0 | 0.00 | 0.00 | 0.00 | 49 | 1010.7 |
| 20260506192014 | 58 | 0 | 0.0 | 0.0 | 0.00 | 0.00 | 0.00 | 48 | 1010.7 |
| 20260506191531 | 58 | 0 | 0.0 | 0.0 | 0.00 | 0.00 | 0.00 | 46 | 1010.8 |
| 20260506191015 | 59 | 0 | 0.0 | 0.0 | 0.00 | 0.00 | 0.00 | 45 | 1010.8 |
| 20260506190514 | 59 | 0 | 0.0 | 0.0 | 0.00 | 0.00 | 0.00 | 42 | 1010.7 |
| 20260506190036 | 60 | 0 | 0.0 | 0.0 | 0.00 | 0.00 | 0.00 | 41 | 1010.7 |
| 20260506185515 | 60 | 0 | 0.0 | 1.0 | 0.00 | 0.00 | 0.00 | 38 | 1010.7 |
| 20260506185015 | 60 | 0 | 0.0 | 1.0 | 0.00 | 0.00 | 0.00 | 37 | 1010.6 |
| 20260506184528 | 60 | 0 | 0.0 | 3.0 | 0.00 | 0.00 | 0.00 | 40 | 1010.7 |
| 20260506184015 | 60 | 0 | 0.0 | 3.0 | 0.00 | 0.00 | 0.00 | 38 | 1010.6 |
| 20260506183516 | 60 | 156 | 0.0 | 3.0 | 0.00 | 0.00 | 0.00 | 40 | 1010.7 |
| 20260506183030 | 61 | 0 | 0.0 | 2.0 | 0.00 | 0.00 | 0.00 | 41 | 1010.4 |
| 20260506182512 | 60 | 0 | 0.0 | 5.0 | 0.00 | 0.00 | 0.00 | 38 | 1010.5 |
| 20260506182021 | 60 | 0 | 1.0 | 5.0 | 0.00 | 0.00 | 0.00 | 41 | 1010.5 |
| 20260506181534 | 61 | 165 | 1.0 | 7.0 | 0.00 | 0.00 | 0.00 | 42 | 1010.5 |
| 20260506181013 | 61 | 0 | 0.0 | 7.0 | 0.00 | 0.00 | 0.00 | 39 | 1010.5 |
| 20260506180516 | 62 | 140 | 2.0 | 7.0 | 0.00 | 0.00 | 0.00 | 39 | 1010.5 |
| 20260506180030 | 62 | 150 | 3.0 | 6.0 | 0.00 | 0.00 | 0.00 | 39 | 1010.6 |
| 20260506175512 | 62 | 191 | 3.0 | 6.0 | 0.00 | 0.00 | 0.00 | 37 | 1010.4 |
| 20260506175015 | 62 | 0 | 2.0 | 7.0 | 0.00 | 0.00 | 0.00 | 38 | 1010.6 |
| 20260506174530 | 62 | 144 | 3.0 | 7.0 | 0.00 | 0.00 | 0.00 | 38 | 1010.6 |
| 20260506174014 | 62 | 184 | 2.0 | 6.0 | 0.00 | 0.00 | 0.00 | 38 | 1010.6 |
| 20260506173515 | 62 | 115 | 1.0 | 6.0 | 0.00 | 0.00 | 0.00 | 38 | 1010.7 |
| 20260506173037 | 62 | 0 | 0.0 | 7.0 | 0.00 | 0.00 | 0.00 | 39 | 1010.7 |
| 20260506172515 | 62 | 151 | 2.0 | 7.0 | 0.00 | 0.00 | 0.00 | 41 | 1010.7 |
| 20260506172013 | 63 | 164 | 2.0 | 7.0 | 0.00 | 0.00 | 0.00 | 38 | 1010.7 |
| 20260506171532 | 62 | 92 | 2.0 | 7.0 | 0.00 | 0.00 | 0.00 | 38 | 1010.7 |
| 20260506171013 | 63 | 146 | 1.0 | 7.0 | 0.00 | 0.00 | 0.00 | 41 | 1010.7 |
| 20260506170516 | 63 | 141 | 2.0 | 7.0 | 0.00 | 0.00 | 0.00 | 39 | 1010.7 |
| 20260506170032 | 63 | 360 | 1.0 | 6.0 | 0.00 | 0.00 | 0.00 | 39 | 1010.7 |
| 20260506165513 | 63 | 0 | 0.0 | 8.0 | 0.00 | 0.00 | 0.00 | 41 | 1010.8 |
| 20260506165014 | 63 | 117 | 2.0 | 8.0 | 0.00 | 0.00 | 0.00 | 40 | 1010.8 |
| 20260506164529 | 63 | 179 | 3.0 | 8.0 | 0.00 | 0.00 | 0.00 | 40 | 1010.9 |
| 20260506164013 | 63 | 0 | 1.0 | 8.0 | 0.00 | 0.00 | 0.00 | 39 | 1010.7 |
| 20260506163515 | 63 | 124 | 3.0 | 8.0 | 0.00 | 0.00 | 0.00 | 39 | 1010.8 |
| 20260506163050 | 63 | 118 | 3.0 | 7.0 | 0.00 | 0.00 | 0.00 | 39 | 1010.8 |
| 20260506162516 | 64 | 123 | 0.0 | 5.0 | 0.00 | 0.00 | 0.00 | 43 | 1010.8 |
| 20260506162017 | 64 | 0 | 3.0 | 7.0 | 0.00 | 0.00 | 0.00 | 38 | 1010.8 |
| 20260506161530 | 63 | 94 | 1.0 | 7.0 | 0.00 | 0.00 | 0.00 | 40 | 1010.8 |
| 20260506161015 | 64 | 0 | 3.0 | 7.0 | 0.00 | 0.00 | 0.00 | 41 | 1010.8 |
| 20260506160512 | 64 | 164 | 1.0 | 7.0 | 0.00 | 0.00 | 0.00 | 42 | 1010.9 |
| 20260506160030 | 64 | 136 | 3.0 | 7.0 | 0.00 | 0.00 | 0.00 | 44 | 1010.9 |
| 20260506155515 | 65 | 156 | 3.0 | 9.0 | 0.00 | 0.00 | 0.00 | 40 | 1010.7 |
| 20260506155015 | 65 | 170 | 2.0 | 9.0 | 0.00 | 0.00 | 0.00 | 40 | 1010.8 |
| 20260506154538 | 65 | 210 | 3.0 | 9.0 | 0.00 | 0.00 | 0.00 | 41 | 1010.8 |
| 20260506154013 | 65 | 206 | 4.0 | 8.0 | 0.00 | 0.00 | 0.00 | 41 | 1010.9 |
| 20260506153516 | 65 | 112 | 4.0 | 8.0 | 0.00 | 0.00 | 0.00 | 41 | 1011.1 |
| 20260506153032 | 65 | 157 | 4.0 | 7.0 | 0.00 | 0.00 | 0.00 | 42 | 1011.1 |
| 20260506152515 | 65 | 215 | 0.0 | 8.0 | 0.00 | 0.00 | 0.00 | 42 | 1011.2 |
| 20260506152016 | 66 | 224 | 1.0 | 8.0 | 0.00 | 0.00 | 0.00 | 43 | 1011.2 |
| 20260506151539 | 65 | 198 | 3.0 | 8.0 | 0.00 | 0.00 | 0.00 | 44 | 1011.2 |
| 20260506151016 | 64 | 175 | 1.0 | 9.0 | 0.00 | 0.00 | 0.00 | 46 | 1011.3 |
| 20260506150518 | 62 | 194 | 3.0 | 9.0 | 0.00 | 0.00 | 0.00 | 45 | 1011.2 |
| 20260506150032 | 62 | 156 | 2.0 | 8.0 | 0.00 | 0.00 | 0.00 | 44 | 1011.4 |
| 20260506145514 | 63 | 194 | 0.0 | 6.0 | 0.00 | 0.00 | 0.00 | 44 | 1011.5 |
| 20260506145016 | 65 | 192 | 2.0 | 6.0 | 0.00 | 0.00 | 0.00 | 42 | 1011.6 |
| 20260506144531 | 65 | 0 | 0.0 | 11.0 | 0.00 | 0.00 | 0.00 | 41 | 1011.6 |
| 20260506144015 | 66 | 0 | 2.0 | 11.0 | 0.00 | 0.00 | 0.00 | 39 | 1011.6 |
| 20260506143513 | 66 | 167 | 6.0 | 11.0 | 0.00 | 0.00 | 0.00 | 41 | 1011.7 |
| 20260506143031 | 66 | 0 | 2.0 | 9.0 | 0.00 | 0.00 | 0.00 | 38 | 1011.6 |
| 20260506142513 | 65 | 183 | 2.0 | 9.0 | 0.00 | 0.00 | 0.00 | 43 | 1011.7 |
| 20260506142019 | 65 | 150 | 1.0 | 8.0 | 0.00 | 0.00 | 0.00 | 42 | 1011.9 |
| 20260506141530 | 65 | 85 | 3.0 | 9.0 | 0.00 | 0.00 | 0.00 | 42 | 1011.7 |
| 20260506141020 | 66 | 0 | 4.0 | 9.0 | 0.00 | 0.00 | 0.00 | 45 | 1011.8 |
| 20260506140513 | 65 | 171 | 2.0 | 8.0 | 0.00 | 0.00 | 0.00 | 41 | 1011.8 |
| 20260506140034 | 66 | 0 | 2.0 | 9.0 | 0.00 | 0.00 | 0.00 | 44 | 1011.9 |
| 20260506135518 | 65 | 143 | 5.0 | 10.0 | 0.00 | 0.00 | 0.00 | 40 | 1012.0 |
| 20260506135020 | 66 | 74 | 5.0 | 10.0 | 0.00 | 0.00 | 0.00 | 41 | 1012.1 |
| 20260506134531 | 66 | 182 | 2.0 | 7.0 | 0.00 | 0.00 | 0.00 | 46 | 1012.0 |
| 20260506134017 | 66 | 0 | 2.0 | 7.0 | 0.00 | 0.00 | 0.00 | 41 | 1012.0 |
| 20260506133516 | 66 | 0 | 2.0 | 9.0 | 0.00 | 0.00 | 0.00 | 40 | 1012.2 |
| 20260506133029 | 66 | 182 | 3.0 | 9.0 | 0.00 | 0.00 | 0.00 | 44 | 1012.1 |
| 20260506132515 | 67 | 173 | 0.0 | 9.0 | 0.00 | 0.00 | 0.00 | 44 | 1012.2 |
| 20260506132012 | 67 | 171 | 2.0 | 9.0 | 0.00 | 0.00 | 0.00 | 43 | 1012.3 |
| 20260506131535 | 66 | 0 | 1.0 | 8.0 | 0.00 | 0.00 | 0.00 | 37 | 1012.4 |
| 20260506131015 | 67 | 192 | 3.0 | 8.0 | 0.00 | 0.00 | 0.00 | 43 | 1012.3 |
| 20260506130517 | 66 | 0 | 0.0 | 6.0 | 0.00 | 0.00 | 0.00 | 45 | 1012.4 |
| 20260506130030 | 65 | 11 | 0.0 | 6.0 | 0.00 | 0.00 | 0.00 | 42 | 1012.4 |
| 20260506125514 | 66 | 0 | 1.0 | 7.0 | 0.00 | 0.00 | 0.00 | 41 | 1012.6 |
| 20260506125013 | 65 | 172 | 3.0 | 7.0 | 0.00 | 0.00 | 0.00 | 46 | 1012.6 |
| 20260506124532 | 64 | 171 | 1.0 | 7.0 | 0.00 | 0.00 | 0.00 | 49 | 1012.7 |
| 20260506124014 | 63 | 88 | 1.0 | 5.0 | 0.00 | 0.00 | 0.00 | 44 | 1012.8 |
| 20260506123515 | 65 | 0 | 0.0 | 8.0 | 0.00 | 0.00 | 0.00 | 51 | 1012.8 |
| 20260506123032 | 65 | 149 | 1.0 | 8.0 | 0.00 | 0.00 | 0.00 | 44 | 1012.9 |
| 20260506122515 | 64 | 141 | 4.0 | 8.0 | 0.00 | 0.00 | 0.00 | 45 | 1013.0 |
| 20260506122013 | 62 | 153 | 0.0 | 6.0 | 0.00 | 0.00 | 0.00 | 46 | 1012.9 |
| 20260506121529 | 63 | 0 | 1.0 | 7.0 | 0.00 | 0.00 | 0.00 | 47 | 1013.1 |
| 20260506121015 | 65 | 255 | 2.0 | 7.0 | 0.00 | 0.00 | 0.00 | 47 | 1013.0 |
| 20260506120515 | 64 | 216 | 2.0 | 9.0 | 0.00 | 0.00 | 0.00 | 47 | 1013.1 |
| 20260506120028 | 63 | 249 | 3.0 | 9.0 | 0.00 | 0.00 | 0.00 | 51 | 1013.1 |
| 20260506115514 | 62 | 0 | 3.0 | 9.0 | 0.00 | 0.00 | 0.00 | 53 | 1013.2 |
| 20260506115015 | 61 | 0 | 0.0 | 5.0 | 0.00 | 0.00 | 0.00 | 49 | 1013.2 |
| 20260506114530 | 60 | 0 | 0.0 | 6.0 | 0.00 | 0.00 | 0.00 | 46 | 1013.3 |
| 20260506114014 | 59 | 132 | 2.0 | 6.0 | 0.00 | 0.00 | 0.00 | 52 | 1013.3 |
| 20260506113513 | 59 | 123 | 1.0 | 6.0 | 0.00 | 0.00 | 0.00 | 51 | 1013.3 |
| 20260506113030 | 62 | 0 | 0.0 | 5.0 | 0.00 | 0.00 | 0.00 | 49 | 1013.3 |
| 20260506112518 | 63 | 0 | 1.0 | 5.0 | 0.00 | 0.00 | 0.00 | 48 | 1013.5 |
| 20260506112014 | 61 | 0 | 1.0 | 6.0 | 0.00 | 0.00 | 0.00 | 51 | 1013.4 |
| 20260506111533 | 63 | 281 | 1.0 | 6.0 | 0.00 | 0.00 | 0.00 | 45 | 1013.4 |
| 20260506111013 | 62 | 333 | 2.0 | 4.0 | 0.00 | 0.00 | 0.00 | 49 | 1013.4 |
| 20260506110512 | 61 | 44 | 0.0 | 5.0 | 0.00 | 0.00 | 0.00 | 53 | 1013.5 |
| 20260506110031 | 61 | 23 | 0.0 | 5.0 | 0.00 | 0.00 | 0.00 | 47 | 1013.5 |
| 20260506105512 | 61 | 334 | 2.0 | 8.0 | 0.00 | 0.00 | 0.00 | 49 | 1013.5 |
| 20260506105016 | 62 | 0 | 2.0 | 8.0 | 0.00 | 0.00 | 0.00 | 50 | 1013.6 |
| 20260506104528 | 63 | 126 | 2.0 | 7.0 | 0.00 | 0.00 | 0.00 | 50 | 1013.6 |
| 20260506104016 | 64 | 324 | 1.0 | 5.0 | 0.00 | 0.00 | 0.00 | 48 | 1013.5 |
| 20260506103513 | 62 | 0 | 0.0 | 5.0 | 0.00 | 0.00 | 0.00 | 51 | 1013.6 |
| 20260506103028 | 63 | 0 | 2.0 | 5.0 | 0.00 | 0.00 | 0.00 | 51 | 1013.7 |
| 20260506102516 | 61 | 0 | 1.0 | 7.0 | 0.00 | 0.00 | 0.00 | 53 | 1013.7 |
| 20260506102015 | 62 | 157 | 2.0 | 7.0 | 0.00 | 0.00 | 0.00 | 49 | 1013.7 |
| 20260506101532 | 61 | 176 | 1.0 | 6.0 | 0.00 | 0.00 | 0.00 | 53 | 1013.8 |
| 20260506101013 | 60 | 0 | 1.0 | 5.0 | 0.00 | 0.00 | 0.00 | 53 | 1013.8 |
| 20260506100513 | 60 | 37 | 0.0 | 4.0 | 0.00 | 0.00 | 0.00 | 52 | 1013.8 |
| 20260506100031 | 60 | 66 | 1.0 | 7.0 | 0.00 | 0.00 | 0.00 | 51 | 1013.8 |
| 20260506095513 | 60 | 0 | 1.0 | 7.0 | 0.00 | 0.00 | 0.00 | 55 | 1013.8 |
| 20260506095018 | 59 | 146 | 1.0 | 7.0 | 0.00 | 0.00 | 0.00 | 56 | 1013.9 |
| 20260506094532 | 61 | 150 | 1.0 | 7.0 | 0.00 | 0.00 | 0.00 | 53 | 1013.8 |
| 20260506094014 | 61 | 0 | 0.0 | 6.0 | 0.00 | 0.00 | 0.00 | 55 | 1013.8 |
| 20260506093516 | 60 | 249 | 1.0 | 6.0 | 0.00 | 0.00 | 0.00 | 54 | 1013.8 |
| 20260506093029 | 59 | 273 | 1.0 | 6.0 | 0.00 | 0.00 | 0.00 | 53 | 1013.8 |
| 20260506092513 | 57 | 319 | 2.0 | 5.0 | 0.00 | 0.00 | 0.00 | 56 | 1013.8 |
| 20260506092013 | 56 | 0 | 1.0 | 8.0 | 0.00 | 0.00 | 0.00 | 59 | 1013.7 |
| 20260506091530 | 57 | 317 | 3.0 | 8.0 | 0.00 | 0.00 | 0.00 | 59 | 1013.8 |
| 20260506091018 | 57 | 0 | 0.0 | 5.0 | 0.00 | 0.00 | 0.00 | 57 | 1013.8 |
| 20260506090515 | 57 | 0 | 0.0 | 8.0 | 0.00 | 0.00 | 0.00 | 58 | 1013.8 |
| 20260506090033 | 57 | 317 | 3.0 | 8.0 | 0.00 | 0.00 | 0.00 | 56 | 1013.9 |
| 20260506085514 | 57 | 0 | 2.0 | 8.0 | 0.00 | 0.00 | 0.00 | 60 | 1013.7 |
| 20260506085015 | 57 | 103 | 0.0 | 8.0 | 0.00 | 0.00 | 0.00 | 63 | 1013.9 |
| 20260506084539 | 57 | 0 | 2.0 | 8.0 | 0.00 | 0.00 | 0.00 | 58 | 1013.9 |
| 20260506084013 | 56 | 0 | 1.0 | 7.0 | 0.00 | 0.00 | 0.00 | 62 | 1013.7 |
| 20260506083516 | 55 | 56 | 2.0 | 7.0 | 0.00 | 0.00 | 0.00 | 61 | 1013.8 |
| 20260506083032 | 55 | 0 | 0.0 | 7.0 | 0.00 | 0.00 | 0.00 | 61 | 1013.8 |
| 20260506082514 | 55 | 73 | 2.0 | 7.0 | 0.00 | 0.00 | 0.00 | 62 | 1013.8 |
| 20260506082011 | 54 | 104 | 0.0 | 7.0 | 0.00 | 0.00 | 0.00 | 61 | 1013.8 |
| 20260506081535 | 54 | 0 | 1.0 | 7.0 | 0.00 | 0.00 | 0.00 | 63 | 1013.8 |
| 20260506081014 | 54 | 92 | 2.0 | 6.0 | 0.00 | 0.00 | 0.00 | 64 | 1013.8 |
| 20260506080514 | 54 | 88 | 1.0 | 6.0 | 0.00 | 0.00 | 0.00 | 63 | 1013.8 |